TimeCDT,TemperatureF,Dew PointF,Humidity,Sea Level PressureIn,VisibilityMPH,Wind Direction,Wind SpeedMPH,Gust SpeedMPH,PrecipitationIn,Events,Conditions,WindDirDegrees,DateUTC
12:15 AM,37.4,37.4,100,30.04,3.0,ESE,10.4,-,N/A,Rain,Light Rain,120,2012-10-30 05:15:00
12:35 AM,37.4,37.4,100,30.04,4.0,ESE,11.5,-,N/A,Rain,Light Rain,120,2012-10-30 05:35:00
12:55 AM,39.2,39.2,100,30.03,3.0,ESE,10.4,-,N/A,Rain,Light Rain,120,2012-10-30 05:55:00
1:15 AM,39.2,39.2,100,30.03,3.0,SE,11.5,17.3,N/A,Rain,Light Rain,140,2012-10-30 06:15:00
1:35 AM,39.2,39.2,100,30.03,4.0,SE,10.4,-,N/A,,Overcast,140,2012-10-30 06:35:00
1:55 AM,39.2,39.2,100,30.03,4.0,SSE,9.2,16.1,N/A,,Overcast,150,2012-10-30 06:55:00
2:35 AM,39.2,39.2,100,30.04,2.5,SE,10.4,-,N/A,,Overcast,140,2012-10-30 07:35:00
2:55 AM,39.2,39.2,100,30.04,1.8,SE,10.4,-,N/A,,Overcast,140,2012-10-30 07:55:00
3:15 AM,39.2,39.2,100,30.03,2.5,SE,10.4,-,N/A,,Mostly Cloudy,140,2012-10-30 08:15:00
3:35 AM,39.2,39.2,100,30.02,2.5,SE,11.5,-,N/A,,Overcast,140,2012-10-30 08:35:00
3:55 AM,39.2,39.2,100,30.02,3.0,SE,11.5,-,N/A,,Overcast,130,2012-10-30 08:55:00
4:15 AM,39.2,39.2,100,30.02,3.0,SE,11.5,-,N/A,,Overcast,140,2012-10-30 09:15:00
4:35 AM,39.2,39.2,100,30.01,2.5,SE,12.7,-,N/A,,Overcast,140,2012-10-30 09:35:00
4:55 AM,39.2,39.2,100,30.01,5.0,SE,12.7,17.3,N/A,,Overcast,140,2012-10-30 09:55:00
5:15 AM,39.2,39.2,100,30.01,5.0,SE,12.7,-,N/A,,Overcast,140,2012-10-30 10:15:00
5:35 AM,39.2,39.2,100,30.01,5.0,SE,12.7,16.1,N/A,,Overcast,140,2012-10-30 10:35:00
5:55 AM,39.2,39.2,100,30.01,5.0,SE,10.4,-,N/A,,Overcast,130,2012-10-30 10:55:00
6:15 AM,39.2,39.2,100,30.00,5.0,SE,11.5,-,N/A,,Overcast,130,2012-10-30 11:15:00
6:35 AM,39.2,39.2,100,30.00,5.0,SE,10.4,-,N/A,,Overcast,140,2012-10-30 11:35:00
6:55 AM,39.2,39.2,100,29.99,6.0,SE,12.7,-,N/A,,Overcast,130,2012-10-30 11:55:00
7:35 AM,37.4,37.4,100,30.00,4.0,SE,8.1,-,N/A,,Mostly Cloudy,130,2012-10-30 12:35:00
7:55 AM,37.4,37.4,100,30.00,4.0,SE,10.4,-,N/A,,Scattered Clouds,130,2012-10-30 12:55:00
8:15 AM,37.4,37.4,100,30.01,5.0,SE,10.4,-,N/A,,Clear,130,2012-10-30 13:15:00
8:35 AM,37.4,37.4,100,30.01,5.0,SE,12.7,16.1,N/A,,Clear,140,2012-10-30 13:35:00
9:35 AM,39.2,39.2,100,30.02,8.0,SSE,13.8,-,N/A,,Clear,150,2012-10-30 14:35:00
9:55 AM,41.0,41.0,100,30.01,10.0,SSE,12.7,-,N/A,,Clear,150,2012-10-30 14:55:00
10:15 AM,41.0,41.0,100,30.02,10.0,SSE,13.8,18.4,N/A,,Clear,150,2012-10-30 15:15:00
10:55 AM,44.6,41.0,87,30.02,10.0,SSE,13.8,17.3,N/A,,Mostly Cloudy,150,2012-10-30 15:55:00
11:15 AM,44.6,41.0,87,30.02,10.0,SE,10.4,18.4,N/A,,Overcast,140,2012-10-30 16:15:00
11:35 AM,46.4,41.0,81,30.02,10.0,SSE,12.7,18.4,N/A,,Mostly Cloudy,160,2012-10-30 16:35:00
11:55 AM,46.4,41.0,81,30.02,10.0,SSE,10.4,16.1,N/A,,Overcast,160,2012-10-30 16:55:00
12:15 PM,46.4,41.0,81,30.02,10.0,South,12.7,18.4,N/A,,Overcast,180,2012-10-30 17:15:00
12:35 PM,46.4,42.8,87,30.00,10.0,South,13.8,-,N/A,,Mostly Cloudy,170,2012-10-30 17:35:00
12:55 PM,46.4,41.0,81,29.99,10.0,South,11.5,16.1,N/A,,Mostly Cloudy,170,2012-10-30 17:55:00
1:35 PM,48.2,42.8,82,29.98,10.0,SSE,10.4,-,N/A,,Mostly Cloudy,160,2012-10-30 18:35:00
1:55 PM,50.0,44.6,82,29.97,10.0,SSE,12.7,16.1,N/A,,Mostly Cloudy,150,2012-10-30 18:55:00
2:15 PM,48.2,42.8,82,29.97,10.0,SSE,16.1,19.6,N/A,,Mostly Cloudy,160,2012-10-30 19:15:00
2:35 PM,48.2,42.8,82,29.97,10.0,SSE,11.5,-,N/A,,Partly Cloudy,150,2012-10-30 19:35:00
2:55 PM,50.0,41.0,71,29.98,10.0,South,13.8,19.6,N/A,,Clear,170,2012-10-30 19:55:00
3:35 PM,50.0,41.0,71,29.98,10.0,South,10.4,-,N/A,,Clear,170,2012-10-30 20:35:00
3:55 PM,50.0,41.0,71,29.98,10.0,SSE,9.2,-,N/A,,Clear,150,2012-10-30 20:55:00
4:15 PM,50.0,41.0,71,29.97,10.0,SSE,10.4,-,N/A,,Clear,150,2012-10-30 21:15:00
4:35 PM,48.2,41.0,76,29.98,10.0,SSE,11.5,-,N/A,,Clear,160,2012-10-30 21:35:00
5:15 PM,46.4,41.0,81,29.97,10.0,SE,6.9,-,N/A,,Clear,140,2012-10-30 22:15:00
5:35 PM,44.6,41.0,87,29.98,10.0,SE,8.1,-,N/A,,Clear,140,2012-10-30 22:35:00
5:55 PM,44.6,41.0,87,29.97,10.0,SE,10.4,-,N/A,,Clear,130,2012-10-30 22:55:00
6:15 PM,42.8,41.0,93,29.97,10.0,SE,10.4,-,N/A,,Clear,130,2012-10-30 23:15:00
6:35 PM,41.0,39.2,93,29.97,10.0,SE,8.1,-,N/A,,Clear,130,2012-10-30 23:35:00
6:55 PM,41.0,39.2,93,29.97,10.0,SE,9.2,-,N/A,,Mostly Cloudy,140,2012-10-30 23:55:00
7:15 PM,41.0,39.2,93,29.98,10.0,SE,9.2,-,N/A,,Mostly Cloudy,140,2012-10-31 00:15:00
7:35 PM,39.2,39.2,100,29.99,10.0,SE,9.2,16.1,N/A,,Partly Cloudy,140,2012-10-31 00:35:00
7:55 PM,39.2,39.2,100,29.99,10.0,SE,9.2,-,N/A,,Clear,140,2012-10-31 00:55:00
8:15 PM,39.2,39.2,100,29.98,10.0,SE,10.4,-,N/A,,Clear,140,2012-10-31 01:15:00
8:35 PM,37.4,37.4,100,29.98,10.0,SE,9.2,-,N/A,,Clear,140,2012-10-31 01:35:00
8:55 PM,37.4,37.4,100,29.98,10.0,SSE,8.1,-,N/A,,Clear,150,2012-10-31 01:55:00
9:15 PM,37.4,37.4,100,29.97,10.0,SE,6.9,-,N/A,,Clear,140,2012-10-31 02:15:00
9:35 PM,35.6,35.6,100,29.98,10.0,SE,5.8,-,N/A,,Clear,140,2012-10-31 02:35:00
9:55 PM,35.6,35.6,100,29.97,9.0,SE,5.8,-,N/A,,Clear,130,2012-10-31 02:55:00
10:15 PM,33.8,33.8,100,29.96,7.0,SE,8.1,-,N/A,,Clear,130,2012-10-31 03:15:00
10:35 PM,35.6,35.6,100,29.96,10.0,SE,6.9,-,N/A,,Clear,130,2012-10-31 03:35:00
10:55 PM,33.8,33.8,100,29.96,9.0,SE,5.8,-,N/A,,Clear,130,2012-10-31 03:55:00
11:35 PM,32.0,32.0,100,29.96,7.0,ESE,5.8,-,N/A,,Clear,110,2012-10-31 04:35:00
11:55 PM,32.0,32.0,100,29.96,5.0,SE,6.9,-,N/A,,Clear,130,2012-10-31 04:55:00